[[{"header":{"parameterUnit":"m.s-1","parameterCategory":1,"la1":30.2991,"la2":30.254,"lo1":-89.0895,"lo2":-89.0444,"dy":0.0017,"dx":0.0017,"nx":28,"ny":28,"refTime":"2024-03-31T09:00:00:Z","depth":0,"parameterNumber":2,"parameterNumberName":"U-component_of_WINDS"},"data":[0,0,0,0,0,0,0,0,0,0,0,0,0,0,0,0,0,0,0,0,0,0,0,0,0,0,0,0,0,0,0,0,0,0,0,0,0,0,0,0,0,0,0,0,0,0,0,0,0,0,0,0,0,0,0,0,0,0,-3.0894,-3.0894,0,-3.0864,-3.0864,-3.0864,-3.0797,-3.0796,-3.0795,-3.0793,-3.0762,-3.0763,-3.0763,0,0,0,0,0,0,0,0,0,0,0,0,0,-3.0895,-3.0895,-3.0894,-3.0894,-3.0893,-3.0864,-3.0864,-3.0863,-3.0798,-3.0796,-3.0794,-3.0793,-3.0762,-3.0763,-3.0763,0,0,0,0,0,0,0,0,0,0,0,0,0,-3.0883,-3.0896,-3.0894,-3.0857,-3.0853,-3.0864,-3.0864,-3.0863,-3.0798,-3.0796,-3.0794,-3.0792,-3.0762,-3.0763,-3.0763,-3.0808,0,0,-3.0765,-3.0766,0,0,0,0,0,0,0,0,-3.0884,-3.0883,-3.0863,-3.086,-3.0855,-3.0832,-3.0853,-3.0845,-3.0798,-3.0819,-3.0793,-3.0791,-3.0787,-3.0786,-3.0785,-3.0807,-3.0805,-3.0765,-3.0766,-3.0766,-3.0766,0,0,0,0,0,0,0,-3.0885,-3.0884,-3.0882,-3.0863,-3.0858,-3.0842,-3.0838,-3.0851,-3.0815,-3.0817,-3.0812,-3.0809,-3.0785,-3.0784,-3.0783,-3.0805,-3.0765,-3.0766,-3.0766,-3.0767,-3.0863,-3.0865,0,0,0,0,0,0,-3.0891,-3.0885,-3.0883,-3.0881,-3.0865,-3.0844,-3.0839,-3.0842,-3.0815,-3.0808,-3.0811,-3.0807,-3.0784,-3.0783,-3.0782,-3.0832,-3.0766,-3.0767,-3.0767,-3.0861,-3.0864,-3.0866,0,0,0,0,0,0,-3.0891,-3.0891,-3.0884,-3.0882,-3.088,-3.0846,-3.0849,-3.0842,-3.0841,-3.081,-3.0803,-3.0817,-3.0782,-3.0781,-3.0802,-3.0831,-3.0767,-3.0768,-3.0859,-3.0862,-3.0865,-3.0934,0,0,0,0,0,0,-3.0891,-3.0892,-3.0908,-3.0883,-3.088,-3.0905,-3.0851,-3.0843,-3.0843,-3.0836,-3.0814,-3.0808,-3.0781,-3.0802,-3.0803,-3.083,-3.0768,-3.0856,-3.086,-3.0864,-3.0929,-3.0939,-3.0948,0,0,0,0,0,-3.0892,-3.0928,-3.0909,-3.0909,-3.09,-3.0907,-3.0905,-3.0873,-3.0845,-3.0861,-3.0842,-3.0809,-3.0828,-3.0805,-3.0805,-3.0833,-3.0854,-3.0859,-3.0864,-3.0925,-3.0937,-3.0948,0,0,0,0,0,0,-3.0957,-3.0924,-3.0902,-3.0932,-3.0923,-3.0895,-3.0914,-3.0887,-3.0885,-3.0879,-3.0839,-3.0835,-3.0862,-3.085,-3.0824,-3.0876,-3.0836,-3.0841,-3.0882,-3.0893,-3.0903,-3.0904,-3.0769,0,0,0,0,0,-3.0975,-3.0983,-3.0954,-3.0983,-3.0979,-3.0948,-3.095,-3.0926,-3.0915,-3.0911,-3.0892,-3.0883,-3.0887,-3.089,-3.0891,-3.0928,-3.0922,-3.0948,-3.0957,-3.0965,-3.097,-3.0989,-3.1,-3.0882,-3.0882,-3.0882,0,0,-3.1011,-3.0995,-3.1002,-3.0996,-3.0985,-3.0995,-3.0945,-3.0957,-3.0964,-3.0912,-3.0931,-3.0918,-3.0905,-3.0934,-3.0946,-3.0925,-3.1002,-3.0972,-3.0978,-3.0978,-3.0995,-3.1006,-3.1016,-3.0885,-3.0885,-3.0884,0,0,-3.1082,-3.1071,-3.1094,-3.1085,-3.1071,-3.1051,-3.1057,-3.1034,-3.1024,-3.1042,-3.1004,-3.1012,-3.1019,-3.1012,-3.1009,-3.1081,-3.105,-3.1083,-3.1131,-3.115,-3.116,-3.1167,-3.1193,-3.1202,-3.1088,-3.1088,-3.1088,0,-3.1129,-3.1142,-3.1109,-3.1124,-3.1122,-3.1078,-3.1101,-3.1094,-3.1082,-3.1082,-3.1059,-3.1068,-3.1056,-3.1083,-3.1101,-3.1101,-3.1106,-3.1084,-3.1161,-3.1169,-3.1176,-3.1199,-3.1209,-3.1092,-3.1091,-3.1091,-3.1091,0,-3.1201,-3.1211,-3.1231,-3.122,-3.1222,-3.1241,-3.1211,-3.1216,-3.1194,-3.1176,-3.1196,-3.1181,-3.1179,-3.1184,-3.1162,-3.1209,-3.1196,-3.1168,-3.1126,-3.1191,-3.1213,-3.1221,-3.1098,-3.1096,-3.1095,-3.1094,0,0,-3.1308,-3.1282,-3.1289,-3.1285,-3.1267,-3.1274,-3.1293,-3.1291,-3.1297,-3.1291,-3.1304,-3.1313,-3.1288,-3.1285,-3.1262,-3.1279,-3.1336,-3.1248,-3.1247,-3.1264,-3.1387,-3.1407,-3.1418,-3.1317,-3.1319,-3.132,-3.1388,0,-3.1374,-3.1403,-3.1375,-3.1409,-3.1418,-3.1377,-3.1393,-3.1384,-3.1369,-3.1375,-3.1358,-3.1365,-3.1331,-3.1329,-3.1344,-3.1326,-3.136,-3.1321,-3.1329,-3.133,-3.1332,-3.1429,-3.145,-3.1514,-3.1396,-3.1397,-3.1398,0,-3.1454,-3.1452,-3.1488,-3.147,-3.1472,-3.1487,-3.1484,-3.1491,-3.1481,-3.1469,-3.1467,-3.144,-3.1457,-3.1418,-3.1441,-3.1415,-3.1418,-3.141,-3.1412,-3.1409,-3.1367,-3.1428,-3.1534,-3.1543,-3.1411,-3.141,-3.1409,0,-3.1528,-3.1535,-3.1557,-3.1555,-3.1534,-3.1546,-3.1538,-3.1526,-3.1528,-3.1526,-3.1527,-3.1528,-3.1527,-3.1529,-3.1503,-3.1477,-3.1529,-3.1488,-3.1519,-3.152,-3.1529,-3.1529,-3.1635,-3.1534,-3.1534,-3.1534,-3.1534,0,-3.1604,-3.1626,-3.159,-3.1604,-3.1629,-3.1597,-3.1623,-3.1611,-3.1602,-3.1612,-3.1578,-3.1589,-3.1555,-3.1562,-3.1542,-3.1564,-3.1565,-3.1556,-3.155,-3.1557,-3.1559,-3.1557,-3.1551,-3.1537,-3.1536,-3.1536,-3.1535,0,-3.1689,-3.1666,-3.1687,-3.1667,-3.1663,-3.1682,-3.1665,-3.1677,-3.1661,-3.1675,-3.1677,-3.1651,-3.1659,-3.1634,-3.1637,-3.1623,-3.1656,-3.1643,-3.1659,-3.1654,-3.1686,-3.1683,-3.1793,-3.1806,-3.1699,-3.17,-3.1701,0,-3.1738,-3.1754,-3.1737,-3.1742,-3.1736,-3.1745,-3.1746,-3.1718,-3.1721,-3.1713,-3.1726,-3.1731,-3.1732,-3.1746,-3.1728,-3.1731,-3.1717,-3.1756,-3.1717,-3.1725,-3.1716,-3.1715,-3.1716,-3.1763,-3.1765,-3.1766,-3.1767,0,-3.1826,-3.1814,-3.1818,-3.182,-3.1823,-3.1822,-3.1819,-3.1825,-3.1794,-3.18,-3.1808,-3.181,-3.1814,-3.1819,-3.1818,-3.181,-3.1783,-3.178,-3.1786,-3.1794,-3.1801,-3.1797,-3.1679,-3.1776,-3.1775,-3.1775,-3.1774,-3.1774,-3.1894,-3.1907,-3.1897,-3.1903,-3.1899,-3.1897,-3.1907,-3.1893,-3.1899,-3.19,-3.1883,-3.1894,-3.1886,-3.1882,-3.1878,-3.1886,-3.1868,-3.1879,-3.1881,-3.1883,-3.1888,-3.1802,-3.1886,-3.1886,-3.1886,-3.1885,-3.1885,0,-3.1979,-3.1972,-3.1978,-3.1975,-3.1981,-3.1957,-3.1953,-3.1958,-3.1969,-3.1963,-3.1967,-3.1976,-3.1982,-3.1965,-3.1968,-3.1978,-3.1966,-3.198,-3.1978,-3.1977,-3.1905,-3.1898,-3.199,-3.199,-3.199,-3.199,-3.199,-3.199,-3.2024,-3.2045,-3.2033,-3.2053,-3.2045,-3.2055,-3.2055,-3.2054,-3.205,-3.2062,-3.2066,-3.2056,-3.2047,-3.2049,-3.2054,-3.2049,-3.2051,-3.2069,-3.206,-3.1992,-3.1982,-3.1972,-3.1965,-3.207,-3.207,-3.2131,-3.2131,-3.2132]},{"header":{"parameterUnit":"m.s-1","parameterCategory":1,"la1":30.2991,"la2":30.254,"lo1":-89.0895,"lo2":-89.0444,"dy":0.0017,"dx":0.0017,"nx":28,"ny":28,"refTime":"2024-03-31T09:00:00:Z","depth":0,"parameterNumber":3,"parameterNumberName":"V-component_of_WINDS"},"data":[0,0,0,0,0,0,0,0,0,0,0,0,0,0,0,0,0,0,0,0,0,0,0,0,0,0,0,0,0,0,0,0,0,0,0,0,0,0,0,0,0,0,0,0,0,0,0,0,0,0,0,0,0,0,0,0,0,0,1.8181,1.8181,0,1.8156,1.8156,1.8156,1.8186,1.8188,1.8189,1.819,1.8161,1.8159,1.8157,0,0,0,0,0,0,0,0,0,0,0,0,0,1.8254,1.8253,1.8181,1.8181,1.8181,1.8156,1.8156,1.8156,1.8186,1.8188,1.8189,1.819,1.8161,1.8159,1.8157,0,0,0,0,0,0,0,0,0,0,0,0,0,1.8225,1.8252,1.8181,1.8193,1.8194,1.8156,1.8156,1.8155,1.8186,1.8188,1.8189,1.8191,1.8162,1.8159,1.8156,1.8105,0,0,1.8148,1.8147,0,0,0,0,0,0,0,0,1.8227,1.8222,1.8192,1.8192,1.8193,1.8176,1.8171,1.8138,1.8185,1.8189,1.819,1.8192,1.8164,1.8161,1.8153,1.8104,1.8102,1.8148,1.8146,1.8145,1.8144,0,0,0,0,0,0,0,1.8229,1.8224,1.8171,1.8191,1.8192,1.8199,1.8197,1.8165,1.8167,1.8189,1.8191,1.8188,1.8165,1.8155,1.8152,1.8102,1.8148,1.8145,1.8144,1.8143,1.8013,1.8011,0,0,0,0,0,0,1.823,1.8225,1.8172,1.817,1.8215,1.8196,1.8194,1.818,1.8167,1.8167,1.8186,1.8189,1.8159,1.8155,1.8151,1.8092,1.8145,1.8142,1.8141,1.8014,1.8012,1.801,0,0,0,0,0,0,1.8231,1.8225,1.8173,1.8198,1.8192,1.8193,1.8177,1.8178,1.8169,1.8166,1.8166,1.8176,1.816,1.8155,1.8117,1.8092,1.8141,1.8139,1.8016,1.8014,1.8011,1.7973,0,0,0,0,0,0,1.8233,1.8225,1.8205,1.8198,1.8191,1.8139,1.8176,1.8177,1.8165,1.8168,1.8156,1.8156,1.8161,1.8121,1.8114,1.8089,1.8136,1.8019,1.8015,1.8012,1.7976,1.7969,1.7963,0,0,0,0,0,1.8236,1.8194,1.8204,1.8198,1.8167,1.8138,1.8134,1.8142,1.8162,1.8143,1.8141,1.8156,1.8096,1.8117,1.811,1.8083,1.802,1.8016,1.8012,1.7979,1.7971,1.7963,0,0,0,0,0,0,1.8197,1.8193,1.8204,1.8159,1.8149,1.8143,1.8119,1.8132,1.8114,1.8118,1.8128,1.8125,1.8085,1.808,1.8104,1.8034,1.8061,1.8056,1.8039,1.803,1.8024,1.8026,1.8134,0,0,0,0,0,1.8183,1.8161,1.8159,1.8119,1.8114,1.8117,1.8105,1.8112,1.8101,1.8097,1.8092,1.808,1.8059,1.8044,1.8024,1.7976,1.7975,1.7954,1.7947,1.7942,1.7937,1.7913,1.7905,1.7997,1.7997,1.7997,0,0,1.8154,1.815,1.8135,1.8111,1.8104,1.8081,1.8113,1.8086,1.8069,1.8092,1.8057,1.8053,1.8041,1.7998,1.7979,1.7993,1.7911,1.7937,1.7932,1.793,1.7908,1.79,1.7892,1.7994,1.7995,1.7995,0,0,1.8091,1.8084,1.8052,1.8045,1.8035,1.8038,1.803,1.8023,1.8022,1.7988,1.8005,1.7985,1.7947,1.7938,1.7929,1.7865,1.7879,1.7858,1.7823,1.78,1.7793,1.7786,1.7765,1.7757,1.7853,1.7853,1.7853,0,1.8056,1.8022,1.8033,1.8007,1.7997,1.8019,1.7987,1.7979,1.7961,1.7954,1.797,1.7925,1.7918,1.7875,1.786,1.7851,1.7843,1.7859,1.7793,1.7787,1.7781,1.7761,1.7753,1.785,1.7851,1.7851,1.7851,0,1.7981,1.7958,1.7933,1.7919,1.7906,1.7876,1.7883,1.7868,1.7878,1.7879,1.7844,1.7837,1.7817,1.7808,1.7815,1.7766,1.7775,1.7792,1.7819,1.777,1.7751,1.7743,1.7847,1.7848,1.7849,1.7849,0,0,1.789,1.7885,1.7876,1.7871,1.7862,1.7844,1.7816,1.7799,1.7787,1.7775,1.7752,1.7721,1.7738,1.7727,1.7734,1.7714,1.7666,1.7733,1.7733,1.7722,1.7614,1.7602,1.7593,1.7676,1.7674,1.7673,1.7616,0,1.7828,1.7781,1.7792,1.7746,1.7725,1.7747,1.7723,1.7716,1.7717,1.7699,1.77,1.7679,1.7701,1.7695,1.7676,1.7676,1.7645,1.768,1.7655,1.7654,1.7658,1.7583,1.757,1.7516,1.7608,1.7607,1.7606,0,1.7748,1.7736,1.7689,1.7687,1.7678,1.7657,1.7643,1.7626,1.7618,1.762,1.761,1.7622,1.7595,1.7623,1.7586,1.761,1.7601,1.7599,1.7597,1.7596,1.7627,1.758,1.7499,1.7491,1.7594,1.7595,1.7596,0,1.7689,1.7661,1.763,1.7624,1.762,1.7605,1.7602,1.7596,1.7586,1.7574,1.7567,1.7551,1.7542,1.7529,1.7537,1.7556,1.7499,1.7528,1.7501,1.7501,1.7488,1.7489,1.7405,1.748,1.748,1.7481,1.7481,0,1.7619,1.7589,1.7604,1.7584,1.7552,1.7565,1.7533,1.7533,1.7528,1.7509,1.7526,1.7508,1.7518,1.7501,1.7507,1.7476,1.7472,1.7473,1.7475,1.7472,1.7472,1.7466,1.747,1.7478,1.7479,1.7479,1.748,0,1.7547,1.7555,1.7523,1.7523,1.7523,1.7499,1.7499,1.7481,1.7485,1.7461,1.7456,1.7461,1.7442,1.7448,1.7427,1.7431,1.7393,1.7399,1.7396,1.7398,1.7371,1.7374,1.7281,1.727,1.7352,1.7351,1.735,0,1.7502,1.7481,1.7479,1.7469,1.7466,1.7448,1.7439,1.7451,1.744,1.7432,1.7415,1.7398,1.7385,1.7353,1.7355,1.7339,1.7346,1.7314,1.7343,1.7342,1.7347,1.7348,1.7347,1.7308,1.7307,1.7307,1.7306,0,1.7422,1.7428,1.7414,1.7403,1.7391,1.7382,1.7374,1.7364,1.7377,1.7364,1.7345,1.7336,1.7316,1.7299,1.7285,1.7282,1.7296,1.7297,1.729,1.7287,1.7287,1.7288,1.7381,1.7299,1.73,1.73,1.7301,1.7301,1.7364,1.7346,1.7344,1.7328,1.7325,1.7318,1.7302,1.7305,1.729,1.7276,1.7284,1.7263,1.7258,1.7242,1.7237,1.7221,1.7233,1.7222,1.722,1.7218,1.7215,1.7289,1.7218,1.7218,1.7219,1.7219,1.7219,0,1.7286,1.7286,1.7272,1.7262,1.725,1.7267,1.7259,1.7248,1.723,1.7225,1.7213,1.7193,1.7177,1.7179,1.7164,1.7151,1.7157,1.7147,1.7148,1.7148,1.7204,1.7212,1.7142,1.7142,1.7142,1.7143,1.7143,1.7143,1.7244,1.7217,1.7223,1.7194,1.7194,1.7175,1.717,1.7164,1.716,1.7138,1.7126,1.7127,1.7125,1.7111,1.7098,1.7098,1.7093,1.708,1.7083,1.7136,1.7144,1.7151,1.7158,1.7079,1.7078,1.7029,1.7028,1.7028]}]]